Location: Corcelles
(46.1547°N, 4.7234°E)
Time: 10:09:06
(UTC+00:00)

Cosmos 921 Rocket - Pass Details

Date: 14 July 2020
Orbit: 572 x 632 km, 75.8° (Epoch: 06 August)

Event Time Altitude Azimuth Distance (km) Brightness Sun altitude
Rises 02:06:09 0° 340° (NNW) 2,900 7.1 -15.3°
Reaches altitude 10° 02:08:25 10° 340° (NNW) 1,981 6.1 -15.0°
Maximum altitude 02:12:50 85° 253° (WSW) 613 2.9 -14.6°
Drops below altitude 10° 02:17:09 10° 165° (SSE) 1,927 5.2 -14.2°
Enters shadow 02:17:10 10° 165° (SSE) 1,936 5.2 -14.2°
